Location: Unspecified
(50.1700°N, 6.8600°E)
Time: 10:10:38
(UTC+00:00)

Cosmos 1726 - Pass Details

Date: 24 January 2019
Orbit: 484 x 501 km, 82.5° (Epoch: 15 February)

Event Time Altitude Azimuth Distance (km) Brightness Sun altitude
Rises 04:58:25 0° 174° (S) 2,565 5.9 -22.0°
Reaches altitude 10° 05:00:33 10° 169° (S) 1,691 5.0 -21.6°
Maximum altitude 05:04:07 48° 95° (E) 664 3.1 -21.1°
Drops below altitude 10° 05:07:44 10° 21° (NNE) 1,715 5.0 -20.5°
Sets 05:09:55 0° 15° (NNE) 2,606 5.9 -20.1°
